Denver, CO

12:23 AM MDT on April 24, 2017 (GMT -0600)
Denver International

Weather History for KDEN - June, 2013

Change the Weather History Date:

Tuesday, June 4, 2013

  Actual Average Record
Temperature  
Mean Temperature 63 °F 64 °F  
Max Temperature 76 °F 78 °F 94 °F (2012)
Min Temperature 50 °F 49 °F 34 °F (1937)
Degree Days  
Heating Degree Days 2 4  
Month to date heating degree days 14 16  
Since 1 June heating degree days 14 16  
Since 1 July heating degree days 6069 6012  
Cooling Degree Days 0 2  
Month to date cooling degree days 11 8  
Year to date cooling degree days 53 30  
Since 1 June cooling degree days 11 8  
Growing Degree Days 12 (Base 50)    
Moisture  
Dew Point 46 °F    
Average Humidity 56    
Maximum Humidity 86    
Minimum Humidity 25    
Precipitation  
Precipitation 0.07 in 0.07 in 2.23 in (1965)
Month to date precipitation 0.07 0.29  
Year to date precipitation 5.31 5.82  
Snow  
Snow 0.00 in - - ()
Month to date snowfall 0  
Since 1 June snowfall 0  
Since 1 July snowfall 78.4  
Snow Depth 0.00 in    
Sea Level Pressure  
Sea Level Pressure 29.93 in    
Wind  
Wind Speed 9 mph (NNE)    
Max Wind Speed 31 mph    
Max Gust Speed 37 mph    
Visibility 10 miles    
Events Rain , Thunderstorm    
T = Trace of Precipitation, MM = Missing Value Source: NWS Daily Summary

Daily Weather History Graph

Daily Weather History Graph

Search for Another Location

Airport or City:

Trip Planner

Search our weather history database for the weather conditions in past years. The results will help you decide how hot, cold, wet, or windy it might be!

Date:

Astronomy

Jun. 04, 2013 Rise Set
Actual Time 5:31 AM MDT 8:23 PM MDT
Civil Twilight 4:58 AM MDT 8:55 PM MDT
Nautical Twilight 4:18 AM MDT 9:36 PM MDT
Astronomical Twilight 3:31 AM MDT 10:23 PM MDT
Moon 3:02 AM MDT (6/4) 4:55 PM MDT (6/4)
Length of Visible Light 15h 56m
Length of Day
14h 52m
Waning Crescent, 14% of the Moon is Illuminated
Jun 4
Waning Crescent
Jun 8
New
Jun 16
First Quarter
Jun 23
Full
Jun 29
Last Quarter

Hourly Weather History & Observations

Time (MDT) Temp. Dew Point Humidity Pressure Visibility Wind Dir Wind Speed Gust Speed Precip Events Conditions
12:53 AM 62.1 °F 27.0 °F 26% 29.70 in 10.0 mi NNE 5.8 mph - N/A   Mostly Cloudy
1:53 AM 57.9 °F 37.9 °F 47% 29.74 in 10.0 mi NNE 8.1 mph - N/A   Mostly Cloudy
2:53 AM 53.1 °F 43.0 °F 69% 29.77 in 10.0 mi NNW 5.8 mph - N/A   Scattered Clouds
3:53 AM 52.0 °F 44.1 °F 74% 29.80 in 10.0 mi North 8.1 mph - N/A   Partly Cloudy
4:53 AM 50.0 °F 44.1 °F 80% 29.84 in 10.0 mi NNE 8.1 mph - N/A   Scattered Clouds
5:21 AM 51.8 °F 44.6 °F 76% 30.07 in 10.0 mi North 6.9 mph - N/A   Overcast
5:53 AM 52.0 °F 45.0 °F 77% 29.86 in 10.0 mi NNW 9.2 mph - N/A   Mostly Cloudy
6:53 AM 53.1 °F 44.1 °F 71% 29.90 in 10.0 mi North 8.1 mph - N/A   Mostly Cloudy
7:53 AM 54.0 °F 45.0 °F 72% 29.91 in 10.0 mi North 6.9 mph - N/A   Overcast
8:53 AM 55.9 °F 45.0 °F 67% 29.90 in 10.0 mi NE 6.9 mph - N/A   Overcast
9:53 AM 60.1 °F 46.0 °F 60% 29.89 in 10.0 mi Variable 5.8 mph - N/A   Overcast
10:53 AM 62.1 °F 46.0 °F 56% 29.90 in 10.0 mi North 5.8 mph - N/A   Scattered Clouds
11:53 AM 66.0 °F 46.9 °F 50% 29.88 in 10.0 mi Variable 3.5 mph - N/A   Scattered Clouds
12:53 PM 69.1 °F 46.0 °F 44% 29.85 in 10.0 mi Variable 4.6 mph - N/A   Partly Cloudy
1:53 PM 72.0 °F 46.0 °F 40% 29.84 in 10.0 mi NE 8.1 mph - N/A   Scattered Clouds
2:53 PM 73.9 °F 45.0 °F 35% 29.82 in 10.0 mi East 11.5 mph - N/A   Mostly Cloudy
3:53 PM 73.0 °F 44.1 °F 35% 29.83 in 10.0 mi East 8.1 mph - N/A   Mostly Cloudy
4:53 PM 71.1 °F 48.9 °F 45% 29.85 in 10.0 mi East 6.9 mph 16.1 mph 0.00 in Rain Light Rain
5:53 PM 70.0 °F 46.0 °F 42% 29.82 in 10.0 mi ESE 10.4 mph - 0.00 in   Mostly Cloudy
6:53 PM 68.0 °F 48.9 °F 50% 29.83 in 10.0 mi East 20.7 mph 28.8 mph 0.00 in   Mostly Cloudy
7:36 PM 62.6 °F 53.6 °F 72% 30.03 in 7.0 mi ESE 11.5 mph - 0.00 in Rain , Thunderstorm Light Thunderstorms and Rain
7:53 PM 63.0 °F 52.0 °F 67% 29.89 in 10.0 mi ENE 6.9 mph - 0.00 in Thunderstorm Thunderstorm
8:01 PM 64.4 °F 51.8 °F 64% 30.05 in 10.0 mi East 10.4 mph - N/A   Mostly Cloudy
8:53 PM 62.1 °F 50.0 °F 65% 29.94 in 10.0 mi NE 10.4 mph - N/A   Mostly Cloudy
9:53 PM 55.0 °F 48.0 °F 77% 30.03 in 10.0 mi NNE 24.2 mph 34.5 mph 0.00 in   Mostly Cloudy
10:02 PM 53.6 °F 48.2 °F 82% 30.19 in 10.0 mi North 19.6 mph 32.2 mph N/A   Overcast
10:14 PM 53.6 °F 48.2 °F 82% 30.19 in 10.0 mi North 20.7 mph 33.4 mph 0.00 in Rain Light Rain
10:53 PM 52.0 °F 46.0 °F 80% 30.07 in 10.0 mi NNE 18.4 mph - 0.00 in   Overcast
11:00 PM 51.8 °F 46.4 °F 82% 30.22 in 10.0 mi North 19.6 mph 25.3 mph N/A   Overcast
11:13 PM 50.0 °F 46.4 °F 87% 30.23 in 4.0 mi North 20.7 mph 25.3 mph 0.03 in Rain Light Rain
11:29 PM 50.0 °F 48.2 °F 94% 30.24 in 8.0 mi NNW 16.1 mph 26.5 mph 0.04 in Rain Light Rain
11:53 PM 50.0 °F 46.9 °F 89% 30.11 in 10.0 mi NNW 12.7 mph 24.2 mph 0.06 in Rain Light Rain